Location: Sternwarte_Laufen
(47.9344°N, 12.9346°E)
Time: 00:43:25
(UTC+02:00)

ISS - Pass Details

Date: 22 May 2017
Orbit: 402 x 408 km, 51.6° (Epoch: 27 May)

Event Time Altitude Azimuth Distance (km) Brightness Sun altitude
Exits shadow 02:06:34 14° 287° (WNW) 1,274 -1.3 -20.3°
Maximum altitude 02:09:12 41° 357° (N) 599 -2.5 -20.2°
Drops below altitude 10° 02:12:21 10° 70° (ENE) 1,466 -0.5 -20.0°
Sets 02:14:30 0° 77° (ENE) 2,325 0.4 -19.9°
